Regional Weather Roundup
Issued by NWS State College, PA

Home | Current Version | Previous Version | Graphics & Text | Print | Product List | Glossary Off
Versions: 1 2 3 4 5 6 7 8 9 10 11 12 13 14 15 16 17 18 19 20 21 22 23 24 25 26 27 28 29 30 31 32 33 34 35 36 37 38 39 40 41 42 43 44 45 46 47 48 49 50

969
ASUS41 KCTP 301603
RWRCTP

REGIONAL WEATHER ROUNDUP
NATIONAL WEATHER SERVICE STATE COLLEGE PA
1200 PM EDT SUN APR 30 2017

Note: "fair" indicates few or no clouds below 12,000 feet with no
significant weather and/or obstructions to visibility.

* = STATION THAT DOES NOT REPORT PRECIPITATION /E.G. RAIN...SNOW...ETC/
    THUNDER OR FOG.

PAZ002>004-007>009-013>016-020>023-029>032-301700-
WESTERN PENNSYLVANIA

CITY           SKY/WX    TMP DP  RH WIND       PRES   REMARKS
ERIE           CLOUDY    53  44  71 NE13      30.00F
MEADVILLE      CLOUDY    76  65  68 S12       30.00F
FRANKLIN*      CLOUDY    75  64  69 S8        30.03F
NEW CASTLE     FAIR      79  67  66 VRB5      30.02S
BEAVER COUNTY  MOSUNNY   79  66  65 SW10      30.02F
BUTLER*        SUNNY     79  66  65 S9        30.04F
PITTSBURGH INT CLOUDY    81  64  56 SW12      30.02F
PITTSBURGH     SUNNY     80  64  58 S8        30.03F
INDIANA*       PTSUNNY   79  66  65 SW10      30.08F
LATROBE        MOSUNNY   81  66  61 W12       30.06F
WASHINGTON CO* SUNNY     81  63  54 SW14G30   30.05S
$$

PAZ004>006-010>012-017>019-024>028-033>037-041-042-045-046-049>053-301700-
CENTRAL PENNSYLVANIA

CITY           SKY/WX    TMP DP  RH WIND       PRES   REMARKS
BRADFORD       MOSUNNY   68  57  68 S12       30.08F
DUBOIS         SUNNY     71  59  65 VRB7      30.07F
CLEARFIELD     MOSUNNY   71  59  65 VRB6      30.09F
JOHNSTOWN      SUNNY     73  63  70 S10       30.11F
ALTOONA        CLOUDY    69  60  73 SE6       30.13F
STATE COLLEGE  CLOUDY    63  54  72 CALM      30.13F
WILLIAMSPORT   CLOUDY    59  45  59 E6        30.14F
SELINSGROVE    CLOUDY    63  47  55 CALM      30.15F
FT INDIANTOWN  CLOUDY    65  50  56 E5        30.16S
CAPITAL CITY   CLOUDY    70  53  54 E10       30.14F
HARRISBURG     CLOUDY    70  54  56 SE8       30.14S
YORK           CLOUDY    71  61  70 SE10      30.14S
$$

PAZ038>040-043-044-047-048-054-055-060>062-067>071-301700-
EASTERN PENNSYLVANIA

CITY           SKY/WX    TMP DP  RH WIND       PRES   REMARKS
SCRANTON       CLOUDY    61  43  51 NW5       30.17S
MOUNT POCONO   CLOUDY    55  41  59 SE12      30.20S
ALLENTOWN      CLOUDY    67  48  50 E10       30.19F
QUAKERTOWN*    CLOUDY    66  48  52 SE7       30.20S
READING        CLOUDY    69  53  56 SE8       30.16S
LANCASTER      CLOUDY    69  57  65 SE6       30.16R
COATESVILLE    PTSUNNY   70  55  60 E14G20    30.17F
POTTSTOWN      CLOUDY    67  49  52 E7        30.19S
BLUE BELL      CLOUDY    64  45  48 E10       30.20S
DOYLESTOWN     CLOUDY    64  46  52 MISG      30.20R
WILLOW GROVE   NOT AVBL
NORTH PHILA    CLOUDY    67  44  43 E13       30.22R
PHILADELPHIA   CLOUDY    68  46  45 E14       30.19S
$$




USA.gov is the U.S. government's official web portal to all federal, state and local government web resources and services.